Content
SEND FEEDBACK

Daily
Averages
Monthly
Summary
United States of America

TOMBSTONE, ARIZONA


Home > North America > United States > Arizona
Elevation: 4392 feet     Latitude: 31 43N     Longitude: 110 04W

WEATHER
 
SELECT A DAY
Number of Records: 126,149;   Date Range: 1/3/95 - 12/16/14
 
SHARE

PRINT THIS DATA

[ ← Previous Day ]
WEATHER ALMANAC - JULY 21, 2013
[ Next Day → ]
[ °C ]   °F
Weather ElementAverageHighLow
Temperature72.9 °F82.9 °F (3:56 pm)66.2 °F (3:17 am)
Dewpoint61.6 °F64.4 °F (12:49 pm)57 °F (5:56 pm)
Humidity69.1 %88 % (3:17 am)44 % (3:56 pm)
Barometer29.96 in30.12 in (10:19 am)29.87 in (12:56 am)
Wind Speed6 mph13.8 mph (3:56 pm)
Wind Gust19.6 mph (3:56 pm)
Weather ElementAverage
Visibility9.1 mi
Wind DirectionSSE (162.1 °)

Weather ElementTotal
Precipitation0.36 in
Cooling Degree Days9.6 (Base 65)
Growing Degree Days24.6 (Base 50)
Averaged from 34 records on July 21, 2013
WEATHER CONDITIONS BREAKOUT
WIND DIRECTION BREAKOUT
WEATHER BY HOUR - JULY 21, 2013
[ °C ]   °F
Local TimeTemperatureDewpointHumidityBarometerVisibilityWind DirectionWind SpeedGust SpeedPrecipitationEventsConditions
12:56 AM70.0 °F63.0 °F78 %29.87 in10.0 miSouth (180°)4.6 mphOvercast
1:41 AM69.8 °F62.6 °F78 %30.05 in10.0 miCalmMostly Cloudy
1:56 AM68.0 °F63.0 °F84 %29.88 in10.0 miWNW (300°)3.5 mphScattered Clouds
2:36 AM68.0 °F62.6 °F83 %30.05 in10.0 miCalmMostly Cloudy
2:56 AM68.0 °F63.0 °F84 %29.87 in10.0 miCalmScattered Clouds
3:17 AM66.2 °F62.6 °F88 %30.05 in10.0 miCalmMostly Cloudy
3:56 AM68.0 °F63.0 °F84 %29.87 in10.0 miSSE (150°)3.5 mphOvercast
4:15 AM66.2 °F62.6 °F88 %30.04 in10.0 miEast (80°)3.5 mphOvercast
4:56 AM66.9 °F63.0 °F87 %29.87 in10.0 miCalmClear
5:56 AM66.9 °F63.0 °F87 %29.90 in10.0 miCalmClear
6:56 AM69.1 °F63.0 °F81 %29.92 in10.0 miNW (320°)3.5 mphClear
7:56 AM72.0 °F63.0 °F73 %29.93 in10.0 miNorth (10°)5.8 mphClear
8:32 AM73.4 °F62.6 °F69 %30.10 in10.0 miNE (40°)6.9 mphMostly Cloudy
8:56 AM73.9 °F63.0 °F68 %29.94 in10.0 miENE (70°)5.8 mphScattered Clouds
9:56 AM75.0 °F62.1 °F64 %29.94 in10.0 miCalmOvercast
10:19 AM73.4 °F60.8 °F65 %30.12 in10.0 miWNW (290°)12.7 mphOvercast
10:56 AM75.2 °F60.8 °F61 %30.12 in10.0 miVariable5.8 mphScattered Clouds
11:56 AM78.1 °F59.0 °F52 %29.93 in10.0 miCalmMostly Cloudy
12:40 PM73.4 °F62.6 °F69 %30.10 in2.0 miSW (220°)11.5 mph0.05 inRainHeavy Rain
12:42 PM71.6 °F62.6 °F73 %30.10 in1.5 miSW (230°)9.2 mph0.07 inRainHeavy Rain
12:49 PM73.4 °F64.4 °F73 %30.09 in2.0 miWest (270°)6.9 mph0.08 inRainLight Rain
12:51 PM73.4 °F64.4 °F73 %30.09 in3.0 miWest (270°)5.8 mph0.08 inRainLight Rain
12:56 PM75.0 °F64.0 °F69 %29.92 in10.0 miWNW (290°)4.6 mph0.08 inRainLight Rain
1:56 PM78.1 °F62.1 °F58 %29.91 in10.0 miWest (270°)9.2 mph0.00 inOvercast
2:56 PM82.0 °F59.0 °F45 %29.88 in10.0 miVariable5.8 mphScattered Clouds
3:56 PM82.9 °F59.0 °F44 %29.87 in10.0 miWest (280°)13.8 mph19.6 mphMostly Cloudy
4:56 PM81.0 °F57.9 °F45 %29.87 in10.0 miWest (270°)13.8 mphOvercast
5:56 PM80.1 °F57.0 °F45 %29.87 in10.0 miWest (260°)13.8 mphClear
6:56 PM79.0 °F57.9 °F48 %29.89 in10.0 miWNW (300°)11.5 mphMostly Cloudy
7:56 PM73.9 °F61.0 °F64 %29.91 in10.0 miWNW (290°)10.4 mphOvercast
8:56 PM72.0 °F62.1 °F71 %29.94 in10.0 miWNW (290°)10.4 mphScattered Clouds
9:56 PM72.0 °F59.0 °F64 %29.95 in10.0 miWest (270°)9.2 mphOvercast
10:55 PM71.6 °F60.8 °F69 %29.96 in10.0 miWNW (290°)5.8 mphMostly Cloudy
11:55 PM69.8 °F57.2 °F64 %29.97 in10.0 miWest (270°)6.9 mphMostly Cloudy
Hourly data recorded from KFHU, located miles away from Tombstone, Arizona







STORIES FROM OUR PARTNERS